Year,Month,Day,Hour,Minute,Value (Times are PST for temperature in C)
2009,08,03,00,00,20.10
2009,08,03,00,01,20.10
2009,08,03,00,02,20.10
2009,08,03,00,03,20.00
2009,08,03,00,04,20.00
2009,08,03,00,05,20.00
2009,08,03,00,06,19.90
2009,08,03,00,07,19.90
2009,08,03,00,08,19.90
2009,08,03,00,09,19.90
2009,08,03,00,10,19.80
2009,08,03,00,11,19.80
2009,08,03,00,12,19.80
2009,08,03,00,13,19.70
2009,08,03,00,14,19.70
2009,08,03,00,15,19.60
2009,08,03,00,16,19.60
2009,08,03,00,17,19.50
2009,08,03,00,18,19.40
2009,08,03,00,19,19.40
2009,08,03,00,20,19.30
2009,08,03,00,21,19.30
2009,08,03,00,22,19.30
2009,08,03,00,23,19.20
2009,08,03,00,24,19.20
2009,08,03,00,25,19.20
2009,08,03,00,26,19.10
2009,08,03,00,27,19.10
2009,08,03,00,28,19.10
2009,08,03,00,29,19.00
2009,08,03,00,30,19.00
2009,08,03,00,31,18.90
2009,08,03,00,32,18.90
2009,08,03,00,33,18.90
2009,08,03,00,34,18.80
2009,08,03,00,35,18.80
2009,08,03,00,36,18.80
2009,08,03,00,37,18.80
2009,08,03,00,38,18.80
2009,08,03,00,39,18.70
2009,08,03,00,40,18.70
2009,08,03,00,41,18.70
2009,08,03,00,42,18.70
2009,08,03,00,43,18.70
2009,08,03,00,44,18.70
2009,08,03,00,45,18.70
2009,08,03,00,46,18.70
2009,08,03,00,47,18.70
2009,08,03,00,48,18.60
2009,08,03,00,49,18.60
2009,08,03,00,50,18.60
2009,08,03,00,51,18.60
2009,08,03,00,52,18.60
2009,08,03,00,53,18.60
2009,08,03,00,54,18.50
2009,08,03,00,55,18.50
2009,08,03,00,56,18.50
2009,08,03,00,57,18.40
2009,08,03,00,58,18.40
2009,08,03,00,59,18.40
2009,08,03,01,00,18.40
2009,08,03,01,01,18.40
2009,08,03,01,02,18.30
2009,08,03,01,03,18.30
2009,08,03,01,04,18.30
2009,08,03,01,05,18.20
2009,08,03,01,06,18.20
2009,08,03,01,07,18.20
2009,08,03,01,08,18.20
2009,08,03,01,09,18.10
2009,08,03,01,10,18.10
2009,08,03,01,11,18.10
2009,08,03,01,12,18.10
2009,08,03,01,13,18.00
2009,08,03,01,14,18.00
2009,08,03,01,15,18.00
2009,08,03,01,16,18.00
2009,08,03,01,17,17.90
2009,08,03,01,18,17.90
2009,08,03,01,19,17.90
2009,08,03,01,20,17.80
2009,08,03,01,21,17.80
2009,08,03,01,22,17.80
2009,08,03,01,23,17.80
2009,08,03,01,24,17.80
2009,08,03,01,25,17.70
2009,08,03,01,26,17.70
2009,08,03,01,27,17.70
2009,08,03,01,28,17.70
2009,08,03,01,29,17.70
2009,08,03,01,30,17.60
2009,08,03,01,31,17.60
2009,08,03,01,32,17.60
2009,08,03,01,33,17.50
2009,08,03,01,34,17.50
2009,08,03,01,35,17.40
2009,08,03,01,36,17.40
2009,08,03,01,37,17.40
2009,08,03,01,38,17.30
2009,08,03,01,39,17.30
2009,08,03,01,40,17.30
2009,08,03,01,41,17.20
2009,08,03,01,42,17.20
2009,08,03,01,43,17.20
2009,08,03,01,44,17.20
2009,08,03,01,45,17.20
2009,08,03,01,46,17.10
2009,08,03,01,47,17.10
2009,08,03,01,48,17.10
2009,08,03,01,49,17.10
2009,08,03,01,50,17.10
2009,08,03,01,51,17.10
2009,08,03,01,52,17.10
2009,08,03,01,53,17.00
2009,08,03,01,54,17.00
2009,08,03,01,55,17.00
2009,08,03,01,56,17.00
2009,08,03,01,57,17.00
2009,08,03,01,58,16.90
2009,08,03,01,59,16.90
2009,08,03,02,00,16.90
2009,08,03,02,01,16.90
2009,08,03,02,02,16.90
2009,08,03,02,03,16.90
2009,08,03,02,04,16.90
2009,08,03,02,05,16.90
2009,08,03,02,06,16.90
2009,08,03,02,07,16.80
2009,08,03,02,08,16.80
2009,08,03,02,09,16.80
2009,08,03,02,10,16.80
2009,08,03,02,11,16.80
2009,08,03,02,12,16.80
2009,08,03,02,13,16.80
2009,08,03,02,14,16.80
2009,08,03,02,15,16.80
2009,08,03,02,16,16.80
2009,08,03,02,17,16.80
2009,08,03,02,18,16.80
2009,08,03,02,19,16.80
2009,08,03,02,20,16.80
2009,08,03,02,21,16.70
2009,08,03,02,22,16.70
2009,08,03,02,23,16.70
2009,08,03,02,24,16.70
2009,08,03,02,25,16.70
2009,08,03,02,26,16.60
2009,08,03,02,27,16.60
2009,08,03,02,28,16.60
2009,08,03,02,29,16.60
2009,08,03,02,30,16.60
2009,08,03,02,31,16.60
2009,08,03,02,32,16.60
2009,08,03,02,33,16.60
2009,08,03,02,34,16.60
2009,08,03,02,35,16.60
2009,08,03,02,36,16.60
2009,08,03,02,37,16.60
2009,08,03,02,38,16.60
2009,08,03,02,39,16.60
2009,08,03,02,40,16.60
2009,08,03,02,41,16.60
2009,08,03,02,42,16.50
2009,08,03,02,43,16.50
2009,08,03,02,44,16.50
2009,08,03,02,45,16.50
2009,08,03,02,46,16.40
2009,08,03,02,47,16.40
2009,08,03,02,48,16.40
2009,08,03,02,49,16.40
2009,08,03,02,50,16.40
2009,08,03,02,51,16.40
2009,08,03,02,52,16.40
2009,08,03,02,53,16.30
2009,08,03,02,54,16.30
2009,08,03,02,55,16.30
2009,08,03,02,56,16.30
2009,08,03,02,57,16.30
2009,08,03,02,58,16.30
2009,08,03,02,59,16.30
2009,08,03,03,00,16.30
2009,08,03,03,01,16.30
2009,08,03,03,02,16.30
2009,08,03,03,03,16.30
2009,08,03,03,04,16.30
2009,08,03,03,05,16.30
2009,08,03,03,06,16.20
2009,08,03,03,07,16.20
2009,08,03,03,08,16.20
2009,08,03,03,09,16.20
2009,08,03,03,10,16.20
2009,08,03,03,11,16.20
2009,08,03,03,12,16.20
2009,08,03,03,13,16.20
2009,08,03,03,14,16.20
2009,08,03,03,15,16.20
2009,08,03,03,16,16.20
2009,08,03,03,17,16.20
2009,08,03,03,18,16.20
2009,08,03,03,19,16.20
2009,08,03,03,20,16.20
2009,08,03,03,21,16.20
2009,08,03,03,22,16.20
2009,08,03,03,23,16.20
2009,08,03,03,24,16.10
2009,08,03,03,25,16.10
2009,08,03,03,26,16.10
2009,08,03,03,27,16.10
2009,08,03,03,28,16.00
2009,08,03,03,29,16.00
2009,08,03,03,30,16.00
2009,08,03,03,31,16.00
2009,08,03,03,32,16.00
2009,08,03,03,33,15.90
2009,08,03,03,34,15.90
2009,08,03,03,35,15.90
2009,08,03,03,36,15.90
2009,08,03,03,37,15.90
2009,08,03,03,38,15.90
2009,08,03,03,39,15.90
2009,08,03,03,40,15.90
2009,08,03,03,41,15.90
2009,08,03,03,42,15.90
2009,08,03,03,43,15.90
2009,08,03,03,44,15.90
2009,08,03,03,45,15.90
2009,08,03,03,46,15.90
2009,08,03,03,47,15.90
2009,08,03,03,48,15.80
2009,08,03,03,49,15.80
2009,08,03,03,50,15.80
2009,08,03,03,51,15.80
2009,08,03,03,52,15.80
2009,08,03,03,53,15.80
2009,08,03,03,54,15.80
2009,08,03,03,55,15.80
2009,08,03,03,56,15.70
2009,08,03,03,57,15.70
2009,08,03,03,58,15.70
2009,08,03,03,59,15.70
2009,08,03,04,00,15.60
2009,08,03,04,01,15.60
2009,08,03,04,02,15.60
2009,08,03,04,03,15.60
2009,08,03,04,04,15.50
2009,08,03,04,05,15.50
2009,08,03,04,06,15.40
2009,08,03,04,07,15.40
2009,08,03,04,08,15.40
2009,08,03,04,09,15.40
2009,08,03,04,10,15.40
2009,08,03,04,11,15.40
2009,08,03,04,12,15.40
2009,08,03,04,13,15.40
2009,08,03,04,14,15.40
2009,08,03,04,15,15.40
2009,08,03,04,16,15.30
2009,08,03,04,17,15.40
2009,08,03,04,18,15.30
2009,08,03,04,19,15.30
2009,08,03,04,20,15.30
2009,08,03,04,21,15.30
2009,08,03,04,22,15.30
2009,08,03,04,23,15.30
2009,08,03,04,24,15.30
2009,08,03,04,25,15.30
2009,08,03,04,26,15.30
2009,08,03,04,27,15.30
2009,08,03,04,28,15.30
2009,08,03,04,29,15.30
2009,08,03,04,30,15.30
2009,08,03,04,31,15.30
2009,08,03,04,32,15.20
2009,08,03,04,33,15.30
2009,08,03,04,34,15.20
2009,08,03,04,35,15.30
2009,08,03,04,36,15.20
2009,08,03,04,37,15.20
2009,08,03,04,38,15.20
2009,08,03,04,39,15.20
2009,08,03,04,40,15.20
2009,08,03,04,41,15.20
2009,08,03,04,42,15.20
2009,08,03,04,43,15.20
2009,08,03,04,44,15.20
2009,08,03,04,45,15.20
2009,08,03,04,46,15.20
2009,08,03,04,47,15.20
2009,08,03,04,48,15.20
2009,08,03,04,49,15.20
2009,08,03,04,50,15.20
2009,08,03,04,51,15.20
2009,08,03,04,52,15.10
2009,08,03,04,53,15.10
2009,08,03,04,54,15.10
2009,08,03,04,55,15.00
2009,08,03,04,56,15.00
2009,08,03,04,57,15.00
2009,08,03,04,58,15.00
2009,08,03,04,59,15.00
2009,08,03,05,00,15.00
2009,08,03,05,01,15.00
2009,08,03,05,02,15.00
2009,08,03,05,03,15.00
2009,08,03,05,04,15.00
2009,08,03,05,05,15.00
2009,08,03,05,06,15.00
2009,08,03,05,07,15.00
2009,08,03,05,08,15.00
2009,08,03,05,09,15.00
2009,08,03,05,10,15.00
2009,08,03,05,11,15.00
2009,08,03,05,12,15.00
2009,08,03,05,13,15.00
2009,08,03,05,14,15.00
2009,08,03,05,15,15.00
2009,08,03,05,16,15.00
2009,08,03,05,17,14.90
2009,08,03,05,18,14.90
2009,08,03,05,19,14.90
2009,08,03,05,20,14.90
2009,08,03,05,21,14.90
2009,08,03,05,22,14.90
2009,08,03,05,23,14.90
2009,08,03,05,24,14.90
2009,08,03,05,25,14.90
2009,08,03,05,26,14.80
2009,08,03,05,27,14.80
2009,08,03,05,28,14.80
2009,08,03,05,29,14.80
2009,08,03,05,30,14.80
2009,08,03,05,31,14.80
2009,08,03,05,32,14.80
2009,08,03,05,33,14.80
2009,08,03,05,34,14.70
2009,08,03,05,35,14.70
2009,08,03,05,36,14.70
2009,08,03,05,37,14.70
2009,08,03,05,38,14.70
2009,08,03,05,39,14.70
2009,08,03,05,40,14.70
2009,08,03,05,41,14.70
2009,08,03,05,42,14.60
2009,08,03,05,43,14.60
2009,08,03,05,44,14.60
2009,08,03,05,45,14.60
2009,08,03,05,46,14.60
2009,08,03,05,47,14.60
2009,08,03,05,48,14.60
2009,08,03,05,49,14.60
2009,08,03,05,50,14.60
2009,08,03,05,51,14.60
2009,08,03,05,52,14.50
2009,08,03,05,53,14.50
2009,08,03,05,54,14.50
2009,08,03,05,55,14.50
2009,08,03,05,56,14.50
2009,08,03,05,57,14.50
2009,08,03,05,58,14.50
2009,08,03,05,59,14.50
2009,08,03,06,00,14.50
2009,08,03,06,01,14.50
2009,08,03,06,02,14.50
2009,08,03,06,03,14.50
2009,08,03,06,04,14.50
2009,08,03,06,05,14.50
2009,08,03,06,06,14.50
2009,08,03,06,07,14.50
2009,08,03,06,08,14.50
2009,08,03,06,09,14.50
2009,08,03,06,10,14.50
2009,08,03,06,11,14.50
2009,08,03,06,12,14.50
2009,08,03,06,13,14.50
2009,08,03,06,14,14.50
2009,08,03,06,15,14.40
2009,08,03,06,16,14.40
2009,08,03,06,17,14.40
2009,08,03,06,18,14.40
2009,08,03,06,19,14.40
2009,08,03,06,20,14.40
2009,08,03,06,21,14.40
2009,08,03,06,22,14.40
2009,08,03,06,23,14.40
2009,08,03,06,24,14.40
2009,08,03,06,25,14.40
2009,08,03,06,26,14.40
2009,08,03,06,27,14.40
2009,08,03,06,28,14.40
2009,08,03,06,29,14.30
2009,08,03,06,30,14.30
2009,08,03,06,31,14.30
2009,08,03,06,32,14.30
2009,08,03,06,33,14.30
2009,08,03,06,34,14.30
2009,08,03,06,35,14.30
2009,08,03,06,36,14.30
2009,08,03,06,37,14.30
2009,08,03,06,38,14.30
2009,08,03,06,39,14.30
2009,08,03,06,40,14.30
2009,08,03,06,41,14.30
2009,08,03,06,42,14.30
2009,08,03,06,43,14.30
2009,08,03,06,44,14.30
2009,08,03,06,45,14.30
2009,08,03,06,46,14.30
2009,08,03,06,47,14.30
2009,08,03,06,48,14.30
2009,08,03,06,49,14.30
2009,08,03,06,50,14.40
2009,08,03,06,51,14.40
2009,08,03,06,52,14.40
2009,08,03,06,53,14.40
2009,08,03,06,54,14.40
2009,08,03,06,55,14.50
2009,08,03,06,56,14.50
2009,08,03,06,57,14.60
2009,08,03,06,58,14.60
2009,08,03,06,59,14.60
2009,08,03,07,00,14.60
2009,08,03,07,01,14.60
2009,08,03,07,02,14.70
2009,08,03,07,03,14.70
2009,08,03,07,04,14.70
2009,08,03,07,05,14.70
2009,08,03,07,06,14.80
2009,08,03,07,07,14.80
2009,08,03,07,08,14.80
2009,08,03,07,09,14.80
2009,08,03,07,10,14.80
2009,08,03,07,11,14.80
2009,08,03,07,12,14.80
2009,08,03,07,13,14.80
2009,08,03,07,14,14.80
2009,08,03,07,15,14.80
2009,08,03,07,16,14.90
2009,08,03,07,17,14.90
2009,08,03,07,18,14.90
2009,08,03,07,19,14.90
2009,08,03,07,20,14.90
2009,08,03,07,21,14.90
2009,08,03,07,22,15.00
2009,08,03,07,23,15.00
2009,08,03,07,24,15.00
2009,08,03,07,25,15.00
2009,08,03,07,26,15.00
2009,08,03,07,27,15.00
2009,08,03,07,28,15.00
2009,08,03,07,29,15.00
2009,08,03,07,30,15.00
2009,08,03,07,31,15.10
2009,08,03,07,32,15.20
2009,08,03,07,33,15.20
2009,08,03,07,34,15.30
2009,08,03,07,35,15.30
2009,08,03,07,36,15.30
2009,08,03,07,37,15.40
2009,08,03,07,38,15.40
2009,08,03,07,39,15.40
2009,08,03,07,40,15.40
2009,08,03,07,41,15.40
2009,08,03,07,42,15.50
2009,08,03,07,43,15.50
2009,08,03,07,44,15.60
2009,08,03,07,45,15.60
2009,08,03,07,46,15.60
2009,08,03,07,47,15.60
2009,08,03,07,48,15.70
2009,08,03,07,49,15.70
2009,08,03,07,50,15.80
2009,08,03,07,51,15.80
2009,08,03,07,52,15.90
2009,08,03,07,53,15.90
2009,08,03,07,54,16.10
2009,08,03,07,55,16.10
2009,08,03,07,56,16.10
2009,08,03,07,57,16.20
2009,08,03,07,58,16.20
2009,08,03,07,59,16.20
2009,08,03,08,00,16.20
2009,08,03,08,01,16.20
2009,08,03,08,02,16.30
2009,08,03,08,03,16.40
2009,08,03,08,04,16.40
2009,08,03,08,05,16.50
2009,08,03,08,06,16.60
2009,08,03,08,07,16.70
2009,08,03,08,08,16.80
2009,08,03,08,09,16.80
2009,08,03,08,10,16.80
2009,08,03,08,11,16.80
2009,08,03,08,12,16.80
2009,08,03,08,13,16.80
2009,08,03,08,14,16.80
2009,08,03,08,15,16.80
2009,08,03,08,16,16.80
2009,08,03,08,17,16.80
2009,08,03,08,18,16.70
2009,08,03,08,19,16.70
2009,08,03,08,20,16.70
2009,08,03,08,21,16.70
2009,08,03,08,22,16.70
2009,08,03,08,23,16.60
2009,08,03,08,24,16.60
2009,08,03,08,25,16.60
2009,08,03,08,26,16.60
2009,08,03,08,27,16.60
2009,08,03,08,28,16.60
2009,08,03,08,29,16.60
2009,08,03,08,30,16.60
2009,08,03,08,31,16.60
2009,08,03,08,32,16.60
2009,08,03,08,33,16.60
2009,08,03,08,34,16.60
2009,08,03,08,35,16.60
2009,08,03,08,36,16.70
2009,08,03,08,37,16.70
2009,08,03,08,38,16.70
2009,08,03,08,39,16.70
2009,08,03,08,40,16.80
2009,08,03,08,41,16.80
2009,08,03,08,42,16.90
2009,08,03,08,43,17.10
2009,08,03,08,44,17.10
2009,08,03,08,45,17.20
2009,08,03,08,46,17.20
2009,08,03,08,47,17.20
2009,08,03,08,48,17.30
2009,08,03,08,49,17.30
2009,08,03,08,50,17.40
2009,08,03,08,51,17.40
2009,08,03,08,52,17.50
2009,08,03,08,53,17.50
2009,08,03,08,54,17.50
2009,08,03,08,55,17.50
2009,08,03,08,56,17.50
2009,08,03,08,57,17.60
2009,08,03,08,58,17.70
2009,08,03,08,59,17.80
2009,08,03,09,00,17.90
2009,08,03,09,01,17.90
2009,08,03,09,02,18.00
2009,08,03,09,03,18.10
2009,08,03,09,04,18.20
2009,08,03,09,05,18.20
2009,08,03,09,06,18.20
2009,08,03,09,07,18.20
2009,08,03,09,08,18.30
2009,08,03,09,09,18.30
2009,08,03,09,10,18.30
2009,08,03,09,11,18.30
2009,08,03,09,12,18.30
2009,08,03,09,13,18.40
2009,08,03,09,14,18.40
2009,08,03,09,15,18.40
2009,08,03,09,16,18.40
2009,08,03,09,17,18.30
2009,08,03,09,18,18.30
2009,08,03,09,19,18.30
2009,08,03,09,20,18.30
2009,08,03,09,21,18.30
2009,08,03,09,22,18.30
2009,08,03,09,23,18.30
2009,08,03,09,24,18.30
2009,08,03,09,25,18.30
2009,08,03,09,26,18.20
2009,08,03,09,27,18.30
2009,08,03,09,28,18.30
2009,08,03,09,29,18.30
2009,08,03,09,30,18.30
2009,08,03,09,31,18.30
2009,08,03,09,32,18.30
2009,08,03,09,33,18.30
2009,08,03,09,34,18.30
2009,08,03,09,35,18.30
2009,08,03,09,36,18.30
2009,08,03,09,37,18.30
2009,08,03,09,38,18.30
2009,08,03,09,39,18.30
2009,08,03,09,40,18.30
2009,08,03,09,41,18.30
2009,08,03,09,42,18.30
2009,08,03,09,43,18.30
2009,08,03,09,44,18.30
2009,08,03,09,45,18.30
2009,08,03,09,46,18.30
2009,08,03,09,47,18.30
2009,08,03,09,48,18.40
2009,08,03,09,49,18.40
2009,08,03,09,50,18.40
2009,08,03,09,51,18.50
2009,08,03,09,52,18.60
2009,08,03,09,53,18.60
2009,08,03,09,54,18.70
2009,08,03,09,55,18.70
2009,08,03,09,56,18.70
2009,08,03,09,57,18.80
2009,08,03,09,58,18.80
2009,08,03,09,59,18.90
2009,08,03,10,00,19.00
2009,08,03,10,01,19.00
2009,08,03,10,02,19.10
2009,08,03,10,03,19.20
2009,08,03,10,04,19.20
2009,08,03,10,05,19.30
2009,08,03,10,06,19.30
2009,08,03,10,07,19.40
2009,08,03,10,08,19.40
2009,08,03,10,09,19.40
2009,08,03,10,10,19.50
2009,08,03,10,11,19.60
2009,08,03,10,12,19.60
2009,08,03,10,13,19.60
2009,08,03,10,14,19.70
2009,08,03,10,15,19.70
2009,08,03,10,16,19.70
2009,08,03,10,17,19.80
2009,08,03,10,18,19.80
2009,08,03,10,19,19.80
2009,08,03,10,20,19.80
2009,08,03,10,21,19.90
2009,08,03,10,22,19.90
2009,08,03,10,23,19.90
2009,08,03,10,24,19.90
2009,08,03,10,25,20.00
2009,08,03,10,26,20.10
2009,08,03,10,27,20.10
2009,08,03,10,28,20.20
2009,08,03,10,29,20.20
2009,08,03,10,30,20.20
2009,08,03,10,31,20.20
2009,08,03,10,32,20.30
2009,08,03,10,33,20.30
2009,08,03,10,34,20.40
2009,08,03,10,35,20.40
2009,08,03,10,36,20.50
2009,08,03,10,37,20.50
2009,08,03,10,38,20.60
2009,08,03,10,39,20.50
2009,08,03,10,40,20.60
2009,08,03,10,41,20.60
2009,08,03,10,42,20.60
2009,08,03,10,43,20.60
2009,08,03,10,44,20.60
2009,08,03,10,45,20.60
2009,08,03,10,46,20.60
2009,08,03,10,47,20.70
2009,08,03,10,48,20.70
2009,08,03,10,49,20.70
2009,08,03,10,50,20.70
2009,08,03,10,51,20.70
2009,08,03,10,52,20.80
2009,08,03,10,53,20.80
2009,08,03,10,54,20.80
2009,08,03,10,55,20.80
2009,08,03,10,56,20.90
2009,08,03,10,57,20.90
2009,08,03,10,58,21.10
2009,08,03,10,59,21.20
2009,08,03,11,00,21.20
2009,08,03,11,01,21.30
2009,08,03,11,02,21.30
2009,08,03,11,03,21.40
2009,08,03,11,04,21.40
2009,08,03,11,05,21.50
2009,08,03,11,06,21.60
2009,08,03,11,07,21.60
2009,08,03,11,08,21.70
2009,08,03,11,09,21.80
2009,08,03,11,10,21.80
2009,08,03,11,11,21.90
2009,08,03,11,12,22.00
2009,08,03,11,13,22.10
2009,08,03,11,14,22.20
2009,08,03,11,15,22.20
2009,08,03,11,16,22.30
2009,08,03,11,17,22.40
2009,08,03,11,18,22.60
2009,08,03,11,19,22.60
2009,08,03,11,20,22.60
2009,08,03,11,21,22.60
2009,08,03,11,22,22.60
2009,08,03,11,23,22.60
2009,08,03,11,24,22.70
2009,08,03,11,25,22.70
2009,08,03,11,26,22.80
2009,08,03,11,27,22.80
2009,08,03,11,28,22.80
2009,08,03,11,29,22.80
2009,08,03,11,30,22.80
2009,08,03,11,31,22.90
2009,08,03,11,32,23.00
2009,08,03,11,33,23.10
2009,08,03,11,34,23.10
2009,08,03,11,35,23.10
2009,08,03,11,36,23.10
2009,08,03,11,37,23.10
2009,08,03,11,38,23.10
2009,08,03,11,39,23.10
2009,08,03,11,40,23.00
2009,08,03,11,41,23.00
2009,08,03,11,42,22.90
2009,08,03,11,43,22.90
2009,08,03,11,44,22.80
2009,08,03,11,45,22.80
2009,08,03,11,46,22.70
2009,08,03,11,47,22.70
2009,08,03,11,48,22.70
2009,08,03,11,49,22.80
2009,08,03,11,50,22.80
2009,08,03,11,51,22.80
2009,08,03,11,52,22.80
2009,08,03,11,53,22.70
2009,08,03,11,54,22.60
2009,08,03,11,55,22.60
2009,08,03,11,56,22.60
2009,08,03,11,57,22.60
2009,08,03,11,58,22.60
2009,08,03,11,59,22.70
2009,08,03,12,00,22.70
2009,08,03,12,01,22.70
2009,08,03,12,02,22.80
2009,08,03,12,03,22.80
2009,08,03,12,04,22.90
2009,08,03,12,05,22.90
2009,08,03,12,06,22.90
2009,08,03,12,07,22.90
2009,08,03,12,08,22.80
2009,08,03,12,09,22.80
2009,08,03,12,10,22.80
2009,08,03,12,11,22.80
2009,08,03,12,12,22.80
2009,08,03,12,13,22.90
2009,08,03,12,14,22.90
2009,08,03,12,15,22.90
2009,08,03,12,16,22.90
2009,08,03,12,17,22.90
2009,08,03,12,18,22.90
2009,08,03,12,19,22.90
2009,08,03,12,20,23.00
2009,08,03,12,21,23.00
2009,08,03,12,22,23.00
2009,08,03,12,23,23.00
2009,08,03,12,24,22.90
2009,08,03,12,25,22.90
2009,08,03,12,26,22.90
2009,08,03,12,27,22.90
2009,08,03,12,28,23.00
2009,08,03,12,29,23.10
2009,08,03,12,30,23.10
2009,08,03,12,31,23.20
2009,08,03,12,32,23.20
2009,08,03,12,33,23.30
2009,08,03,12,34,23.30
2009,08,03,12,35,23.40
2009,08,03,12,36,23.40
2009,08,03,12,37,23.40
2009,08,03,12,38,23.40
2009,08,03,12,39,23.40
2009,08,03,12,40,23.40
2009,08,03,12,41,23.40
2009,08,03,12,42,23.50
2009,08,03,12,43,23.60
2009,08,03,12,44,23.60
2009,08,03,12,45,23.70
2009,08,03,12,46,23.60
2009,08,03,12,47,23.70
2009,08,03,12,48,23.70
2009,08,03,12,49,23.70
2009,08,03,12,50,23.80
2009,08,03,12,51,23.90
2009,08,03,12,52,24.00
2009,08,03,12,53,24.00
2009,08,03,12,54,23.90
2009,08,03,12,55,23.90
2009,08,03,12,56,23.90
2009,08,03,12,57,23.90
2009,08,03,12,58,24.00
2009,08,03,12,59,24.10
2009,08,03,13,00,24.10
2009,08,03,13,01,24.00
2009,08,03,13,02,24.10
2009,08,03,13,03,24.10
2009,08,03,13,04,24.20
2009,08,03,13,05,24.30
2009,08,03,13,06,24.30
2009,08,03,13,07,24.20
2009,08,03,13,08,24.20
2009,08,03,13,09,24.10
2009,08,03,13,10,24.10
2009,08,03,13,11,24.10
2009,08,03,13,12,24.20
2009,08,03,13,13,24.20
2009,08,03,13,14,24.30
2009,08,03,13,15,24.30
2009,08,03,13,16,24.30
2009,08,03,13,17,24.30
2009,08,03,13,18,24.30
2009,08,03,13,19,24.30
2009,08,03,13,20,24.40
2009,08,03,13,21,24.50
2009,08,03,13,22,24.60
2009,08,03,13,23,24.70
2009,08,03,13,24,24.70
2009,08,03,13,25,24.70
2009,08,03,13,26,24.70
2009,08,03,13,27,24.70
2009,08,03,13,28,24.70
2009,08,03,13,29,24.80
2009,08,03,13,30,24.80
2009,08,03,13,31,24.80
2009,08,03,13,32,24.80
2009,08,03,13,33,24.80
2009,08,03,13,34,24.80
2009,08,03,13,35,24.90
2009,08,03,13,36,24.90
2009,08,03,13,37,24.90
2009,08,03,13,38,24.90
2009,08,03,13,39,24.90
2009,08,03,13,40,24.80
2009,08,03,13,41,24.80
2009,08,03,13,42,24.80
2009,08,03,13,43,24.80
2009,08,03,13,44,24.80
2009,08,03,13,45,24.80
2009,08,03,13,46,24.90
2009,08,03,13,47,24.90
2009,08,03,13,48,25.10
2009,08,03,13,49,25.20
2009,08,03,13,50,25.40
2009,08,03,13,51,25.50
2009,08,03,13,52,25.60
2009,08,03,13,53,25.60
2009,08,03,13,54,25.60
2009,08,03,13,55,25.50
2009,08,03,13,56,25.50
2009,08,03,13,57,25.50
2009,08,03,13,58,25.60
2009,08,03,13,59,25.60
2009,08,03,14,00,25.60
2009,08,03,14,01,25.60
2009,08,03,14,02,25.60
2009,08,03,14,03,25.60
2009,08,03,14,04,25.60
2009,08,03,14,05,25.60
2009,08,03,14,06,25.60
2009,08,03,14,07,25.60
2009,08,03,14,08,25.50
2009,08,03,14,09,25.40
2009,08,03,14,10,25.40
2009,08,03,14,11,25.40
2009,08,03,14,12,25.40
2009,08,03,14,13,25.60
2009,08,03,14,14,25.60
2009,08,03,14,15,25.70
2009,08,03,14,16,25.60
2009,08,03,14,17,25.60
2009,08,03,14,18,25.70
2009,08,03,14,19,25.80
2009,08,03,14,20,25.90
2009,08,03,14,21,26.00
2009,08,03,14,22,26.10
2009,08,03,14,23,26.20
2009,08,03,14,24,26.20
2009,08,03,14,25,26.10
2009,08,03,14,26,26.10
2009,08,03,14,27,25.90
2009,08,03,14,28,25.90
2009,08,03,14,29,25.90
2009,08,03,14,30,25.80
2009,08,03,14,31,25.80
2009,08,03,14,32,25.80
2009,08,03,14,33,25.70
2009,08,03,14,34,25.70
2009,08,03,14,35,25.80
2009,08,03,14,36,25.80
2009,08,03,14,37,25.80
2009,08,03,14,38,25.80
2009,08,03,14,39,25.80
2009,08,03,14,40,25.80
2009,08,03,14,41,25.90
2009,08,03,14,42,25.90
2009,08,03,14,43,25.90
2009,08,03,14,44,25.90
2009,08,03,14,45,25.90
2009,08,03,14,46,25.90
2009,08,03,14,47,25.90
2009,08,03,14,48,25.90
2009,08,03,14,49,25.90
2009,08,03,14,50,25.90
2009,08,03,14,51,25.90
2009,08,03,14,52,25.90
2009,08,03,14,53,25.90
2009,08,03,14,54,25.90
2009,08,03,14,55,26.10
2009,08,03,14,56,26.10
2009,08,03,14,57,26.20
2009,08,03,14,58,26.20
2009,08,03,14,59,26.30
2009,08,03,15,00,26.30
2009,08,03,15,01,26.40
2009,08,03,15,02,26.40
2009,08,03,15,03,26.30
2009,08,03,15,04,26.30
2009,08,03,15,05,26.30
2009,08,03,15,06,26.30
2009,08,03,15,07,26.40
2009,08,03,15,08,26.60
2009,08,03,15,09,26.60
2009,08,03,15,10,26.60
2009,08,03,15,11,26.60
2009,08,03,15,12,26.60
2009,08,03,15,13,26.60
2009,08,03,15,14,26.60
2009,08,03,15,15,26.60
2009,08,03,15,16,26.60
2009,08,03,15,17,26.60
2009,08,03,15,18,26.70
2009,08,03,15,19,26.70
2009,08,03,15,20,26.70
2009,08,03,15,21,26.70
2009,08,03,15,22,26.70
2009,08,03,15,23,26.70
2009,08,03,15,24,26.70
2009,08,03,15,25,26.70
2009,08,03,15,26,26.70
2009,08,03,15,27,26.70
2009,08,03,15,28,26.60
2009,08,03,15,29,26.60
2009,08,03,15,30,26.50
2009,08,03,15,31,26.40
2009,08,03,15,32,26.50
2009,08,03,15,33,26.60
2009,08,03,15,34,26.70
2009,08,03,15,35,26.70
2009,08,03,15,36,26.70
2009,08,03,15,37,26.70
2009,08,03,15,38,26.70
2009,08,03,15,39,26.80
2009,08,03,15,40,26.70
2009,08,03,15,41,26.70
2009,08,03,15,42,26.70
2009,08,03,15,43,26.60
2009,08,03,15,44,26.60
2009,08,03,15,45,26.70
2009,08,03,15,46,26.70
2009,08,03,15,47,26.70
2009,08,03,15,48,26.70
2009,08,03,15,49,26.80
2009,08,03,15,50,26.80
2009,08,03,15,51,26.80
2009,08,03,15,52,26.80
2009,08,03,15,53,26.80
2009,08,03,15,54,26.80
2009,08,03,15,55,26.90
2009,08,03,15,56,26.90
2009,08,03,15,57,26.90
2009,08,03,15,58,26.90
2009,08,03,15,59,26.90
2009,08,03,16,00,26.80
2009,08,03,16,01,26.90
2009,08,03,16,02,26.80
2009,08,03,16,03,26.80
2009,08,03,16,04,26.80
2009,08,03,16,05,26.80
2009,08,03,16,06,26.70
2009,08,03,16,07,26.60
2009,08,03,16,08,26.50
2009,08,03,16,09,26.40
2009,08,03,16,10,26.40
2009,08,03,16,11,26.40
2009,08,03,16,12,26.50
2009,08,03,16,13,26.60
2009,08,03,16,14,26.70
2009,08,03,16,15,26.70
2009,08,03,16,16,26.80
2009,08,03,16,17,26.80
2009,08,03,16,18,26.80
2009,08,03,16,19,26.70
2009,08,03,16,20,26.60
2009,08,03,16,21,26.40
2009,08,03,16,22,26.40
2009,08,03,16,23,26.40
2009,08,03,16,24,26.40
2009,08,03,16,25,26.40
2009,08,03,16,26,26.40
2009,08,03,16,27,26.40
2009,08,03,16,28,26.30
2009,08,03,16,29,26.20
2009,08,03,16,30,26.20
2009,08,03,16,31,26.10
2009,08,03,16,32,25.90
2009,08,03,16,33,25.80
2009,08,03,16,34,25.80
2009,08,03,16,35,25.80
2009,08,03,16,36,25.80
2009,08,03,16,37,25.80
2009,08,03,16,38,25.80
2009,08,03,16,39,25.90
2009,08,03,16,40,25.90
2009,08,03,16,41,25.80
2009,08,03,16,42,25.80
2009,08,03,16,43,25.80
2009,08,03,16,44,25.70
2009,08,03,16,45,25.60
2009,08,03,16,46,25.60
2009,08,03,16,47,25.60
2009,08,03,16,48,25.60
2009,08,03,16,49,25.40
2009,08,03,16,50,25.40
2009,08,03,16,51,25.40
2009,08,03,16,52,25.30
2009,08,03,16,53,25.30
2009,08,03,16,54,25.40
2009,08,03,16,55,25.40
2009,08,03,16,56,25.40
2009,08,03,16,57,25.40
2009,08,03,16,58,25.40
2009,08,03,16,59,25.40
2009,08,03,17,00,25.30
2009,08,03,17,01,25.30
2009,08,03,17,02,25.30
2009,08,03,17,03,25.30
2009,08,03,17,04,25.30
2009,08,03,17,05,25.30
2009,08,03,17,06,25.30
2009,08,03,17,07,25.20
2009,08,03,17,08,25.20
2009,08,03,17,09,25.20
2009,08,03,17,10,25.20
2009,08,03,17,11,25.30
2009,08,03,17,12,25.30
2009,08,03,17,13,25.30
2009,08,03,17,14,25.30
2009,08,03,17,15,25.20
2009,08,03,17,16,25.20
2009,08,03,17,17,25.30
2009,08,03,17,18,25.30
2009,08,03,17,19,25.30